Clarion, IA

4:21 AM CDT on March 30, 2017 (GMT -0500)
Clarion Municipal

Weather History for KCAV - February, 2013

Change the Weather History Date:

Sunday, February 3, 2013

  Actual Average Record
Temperature  
Mean Temperature 19 °F -  
Max Temperature 28 °F 23 °F 56 °F (1987)
Min Temperature 10 °F 5 °F -20 °F (1989)
Degree Days  
Heating Degree Days 46    
Moisture  
Dew Point 14 °F    
Average Humidity 76    
Maximum Humidity 86    
Minimum Humidity 68    
Precipitation  
Precipitation 0.00 in - - ()
Sea Level Pressure  
Sea Level Pressure 29.99 in    
Wind  
Wind Speed 18 mph (West)    
Max Wind Speed 32 mph    
Max Gust Speed 38 mph    
Visibility 10 miles    
Events Rain , Snow    
Averages and records for this station are not official NWS values.
T = Trace of Precipitation, MM = Missing Value Source: NWS Daily Summary

Daily Weather History Graph

Daily Weather History Graph

Search for Another Location

Airport or City:

Trip Planner

Search our weather history database for the weather conditions in past years. The results will help you decide how hot, cold, wet, or windy it might be!

Date:

Astronomy

Feb. 03, 2013 Rise Set
Actual Time 7:26 AM CST 5:31 PM CST
Civil Twilight 6:57 AM CST 6:01 PM CST
Nautical Twilight 6:23 AM CST 6:34 PM CST
Astronomical Twilight 5:50 AM CST 7:07 PM CST
Moon 12:55 AM CST (2/3) 11:08 AM CST (2/3)
Length of Visible Light 11h 03m
Length of Day
10h 04m
Waning Gibbous, 48% of the Moon is Illuminated
Feb 3
Waning Gibbous
Feb 10
New
Feb 17
First Quarter
Feb 25
Full
Mar 4
Last Quarter

Hourly Weather History & Observations

Time (CST) Temp. Windchill Dew Point Humidity Pressure Visibility Wind Dir Wind Speed Gust Speed Precip Events Conditions
12:15 AM 23.0 °F 4.9 °F 19.4 °F 86% 29.97 in 9.0 mi NW 32.2 mph - N/A   Light Freezing Rain
12:35 AM 23.0 °F 6.0 °F 17.6 °F 80% 29.97 in 7.0 mi NNW 27.6 mph 35.7 mph N/A   Light Freezing Rain
12:55 AM 21.2 °F 3.9 °F 15.8 °F 80% 29.98 in 8.0 mi NW 26.5 mph 35.7 mph N/A   Light Freezing Rain
1:15 AM 19.4 °F 0.8 °F 14.0 °F 80% 29.99 in 7.0 mi NW 28.8 mph 36.8 mph N/A   Light Freezing Rain
1:35 AM 17.6 °F -1.0 °F 12.2 °F 79% 30.01 in 10.0 mi NW 26.5 mph 32.2 mph N/A   Light Freezing Rain
1:55 AM 17.6 °F -1.3 °F 10.4 °F 73% 30.03 in 10.0 mi NW 27.6 mph 34.5 mph N/A   Mostly Cloudy
2:15 AM 15.8 °F -2.3 °F 10.4 °F 79% 30.03 in 10.0 mi NW 23.0 mph 32.2 mph N/A   Mostly Cloudy
2:35 AM 17.6 °F -1.6 °F 12.2 °F 79% 30.03 in 9.0 mi NW 28.8 mph 38.0 mph N/A Snow Light Snow
2:55 AM 17.6 °F -1.0 °F 12.2 °F 79% 30.04 in 10.0 mi NW 26.5 mph 34.5 mph N/A Rain Light Freezing Rain
3:15 AM 17.6 °F -1.0 °F 12.2 °F 79% 30.04 in 10.0 mi NW 26.5 mph 33.4 mph N/A Snow Light Snow
3:55 AM 17.6 °F -1.0 °F 10.4 °F 73% 30.05 in 10.0 mi NW 26.5 mph 33.4 mph N/A Snow Light Snow
4:15 AM 15.8 °F -3.1 °F 8.6 °F 73% 30.05 in 10.0 mi NW 25.3 mph 33.4 mph N/A   Scattered Clouds
4:35 AM 15.8 °F -1.1 °F 8.6 °F 73% 30.06 in 10.0 mi NW 19.6 mph - N/A   Partly Cloudy
4:55 AM 14.0 °F -0.2 °F 8.6 °F 79% 30.07 in 10.0 mi NW 12.7 mph 19.6 mph N/A   Partly Cloudy
5:15 AM 14.0 °F -3.4 °F 6.8 °F 73% 30.07 in 10.0 mi NW 19.6 mph - N/A   Partly Cloudy
5:35 AM 12.2 °F -6.7 °F 6.8 °F 79% 30.08 in 10.0 mi NW 21.9 mph - N/A   Partly Cloudy
5:55 AM 12.2 °F -4.3 °F 5.0 °F 73% 30.08 in 10.0 mi NW 16.1 mph 23.0 mph N/A   Partly Cloudy
6:15 AM 12.2 °F -3.7 °F 5.0 °F 73% 30.10 in 10.0 mi NW 15.0 mph - N/A   Clear
6:35 AM 12.2 °F -4.3 °F 5.0 °F 73% 30.10 in 10.0 mi NW 16.1 mph - N/A   Clear
6:55 AM 10.4 °F -4.8 °F 5.0 °F 79% 30.11 in 10.0 mi NW 12.7 mph 18.4 mph N/A   Clear
7:15 AM 10.4 °F -2.4 °F 5.0 °F 79% 30.11 in 10.0 mi NW 9.2 mph - N/A   Clear
7:35 AM 10.4 °F -3.3 °F 5.0 °F 79% 30.10 in - NW 10.4 mph - N/A   Clear
7:55 AM 10.4 °F -0.4 °F 5.0 °F 79% 30.11 in 10.0 mi NW 6.9 mph - N/A   Partly Cloudy
8:15 AM 10.4 °F 4.0 °F 5.0 °F 79% 30.10 in 10.0 mi NW 3.5 mph - N/A   Mostly Cloudy
8:35 AM 10.4 °F 4.0 °F 5.0 °F 79% 30.12 in 10.0 mi West 3.5 mph - N/A   Mostly Cloudy
8:55 AM 12.2 °F 4.3 °F 6.8 °F 79% 30.11 in 10.0 mi West 4.6 mph - N/A   Mostly Cloudy
9:15 AM 14.0 °F 5.1 °F 6.8 °F 73% 30.11 in 10.0 mi West 5.8 mph - N/A   Mostly Cloudy
9:35 AM 14.0 °F 5.1 °F 8.6 °F 79% 30.10 in 10.0 mi West 5.8 mph - N/A   Mostly Cloudy
9:55 AM 15.8 °F 2.7 °F 10.4 °F 79% 30.11 in 10.0 mi WNW 11.5 mph - N/A   Overcast
10:15 AM 15.8 °F 4.2 °F 10.4 °F 79% 30.10 in 10.0 mi NW 9.2 mph - N/A   Overcast
10:35 AM 17.6 °F 6.4 °F 10.4 °F 73% 30.11 in 10.0 mi NW 9.2 mph - N/A   Overcast
10:55 AM 17.6 °F 6.4 °F 10.4 °F 73% 30.11 in 10.0 mi West 9.2 mph - N/A   Overcast
11:15 AM 17.6 °F 6.4 °F 10.4 °F 73% 30.11 in 10.0 mi West 9.2 mph - N/A   Overcast
11:35 AM 17.6 °F 6.4 °F 10.4 °F 73% 30.10 in 10.0 mi WNW 9.2 mph - N/A   Overcast
11:55 AM 17.6 °F 7.3 °F 10.4 °F 73% 30.09 in 10.0 mi West 8.1 mph - N/A   Overcast
12:15 PM 19.4 °F 9.5 °F 10.4 °F 68% 30.08 in 10.0 mi West 8.1 mph - N/A   Overcast
12:35 PM 19.4 °F 9.5 °F 10.4 °F 68% 30.07 in 10.0 mi WNW 8.1 mph - N/A   Overcast
12:55 PM 19.4 °F 11.5 °F 12.2 °F 74% 30.07 in 10.0 mi WNW 5.8 mph - N/A   Overcast
1:15 PM 19.4 °F 14.3 °F 12.2 °F 74% 30.05 in 10.0 mi West 3.5 mph - N/A   Overcast
1:35 PM 21.2 °F 16.4 °F 12.2 °F 68% 30.03 in 10.0 mi WSW 3.5 mph - N/A   Overcast
1:55 PM 23.0 °F 17.0 °F 14.0 °F 68% 30.02 in 10.0 mi SSW 4.6 mph - N/A   Overcast
2:15 PM 23.0 °F 15.8 °F 15.8 °F 74% 30.00 in 10.0 mi South 5.8 mph - N/A   Scattered Clouds
2:35 PM 24.8 °F 16.1 °F 15.8 °F 69% 29.99 in 10.0 mi South 8.1 mph - N/A   Partly Cloudy
2:55 PM 24.8 °F 16.9 °F 17.6 °F 74% 29.98 in 10.0 mi SSE 6.9 mph - N/A   Overcast
3:15 PM 24.8 °F 16.9 °F 17.6 °F 74% 29.97 in 10.0 mi South 6.9 mph - N/A   Scattered Clouds
3:35 PM 24.8 °F 16.1 °F 17.6 °F 74% 29.97 in 10.0 mi SSE 8.1 mph - N/A   Partly Cloudy
3:55 PM 26.6 °F 17.5 °F 19.4 °F 74% 29.96 in 10.0 mi South 9.2 mph - N/A   Clear
4:15 PM 26.6 °F 17.5 °F 19.4 °F 74% 29.95 in 10.0 mi South 9.2 mph - N/A   Scattered Clouds
4:35 PM 26.6 °F 20.0 °F 21.2 °F 80% 29.94 in 10.0 mi SSE 5.8 mph - N/A   Mostly Cloudy
4:55 PM 28.4 °F 20.4 °F 21.2 °F 74% 29.93 in 10.0 mi South 8.1 mph - N/A   Overcast
5:15 PM 28.4 °F 20.4 °F 21.2 °F 74% 29.92 in 10.0 mi South 8.1 mph - N/A   Overcast
5:35 PM 28.4 °F 19.1 °F 21.2 °F 74% 29.91 in 10.0 mi SSE 10.4 mph - N/A   Overcast
5:55 PM 28.4 °F 19.7 °F 21.2 °F 74% 29.90 in 10.0 mi SSE 9.2 mph - N/A   Overcast
6:15 PM 28.4 °F 19.7 °F 21.2 °F 74% 29.90 in 10.0 mi SSE 9.2 mph - N/A   Overcast
6:35 PM 26.6 °F 16.8 °F 21.2 °F 80% 29.90 in 10.0 mi SE 10.4 mph - N/A   Overcast
6:55 PM 26.6 °F 17.5 °F 21.2 °F 80% 29.90 in 10.0 mi ESE 9.2 mph - N/A   Overcast
7:15 PM 26.6 °F 16.8 °F 21.2 °F 80% 29.90 in 10.0 mi ESE 10.4 mph - N/A   Partly Cloudy
7:35 PM 24.8 °F 13.4 °F 19.4 °F 80% 29.89 in 10.0 mi SE 12.7 mph - N/A   Clear
7:55 PM 24.8 °F 14.0 °F 19.4 °F 80% 29.88 in 10.0 mi SE 11.5 mph - N/A   Clear
8:15 PM 24.8 °F 12.9 °F 17.6 °F 74% 29.87 in 10.0 mi SE 13.8 mph - N/A   Clear
8:35 PM 23.0 °F 10.1 °F 17.6 °F 80% 29.86 in 10.0 mi SE 15.0 mph - N/A   Clear
8:55 PM 23.0 °F 9.6 °F 17.6 °F 80% 29.84 in 10.0 mi SE 16.1 mph - N/A   Clear
9:15 PM 23.0 °F 10.6 °F 17.6 °F 80% 29.84 in 10.0 mi ESE 13.8 mph - N/A   Mostly Cloudy
9:35 PM 23.0 °F 9.6 °F 17.6 °F 80% 29.83 in 10.0 mi ESE 16.1 mph - N/A   Overcast
9:55 PM 23.0 °F 11.1 °F 17.6 °F 80% 29.82 in 10.0 mi ESE 12.7 mph 18.4 mph N/A   Overcast
10:15 PM 23.0 °F 12.4 °F 17.6 °F 80% 29.82 in 10.0 mi ESE 10.4 mph - N/A   Overcast
10:35 PM 24.8 °F 12.4 °F 17.6 °F 74% 29.80 in 10.0 mi ESE 15.0 mph - N/A   Overcast
10:55 PM 24.8 °F 13.4 °F 17.6 °F 74% 29.80 in 10.0 mi SE 12.7 mph - N/A   Overcast
11:15 PM 24.8 °F 13.4 °F 17.6 °F 74% 29.79 in 10.0 mi SE 12.7 mph - N/A   Overcast
11:35 PM 24.8 °F 14.0 °F 17.6 °F 74% 29.78 in 10.0 mi SE 11.5 mph - N/A   Overcast
11:55 PM 24.8 °F 14.6 °F 17.6 °F 74% 29.77 in 10.0 mi SE 10.4 mph 17.3 mph N/A   Overcast